Location: Chin
(49.7667°N, 112.4500°W)
Time: 11:00:15
(UTC+00:00)

Envisat - Pass Details

Date: 28 November 2021
Orbit: 764 x 766 km, 98.2° (Epoch: 25 January)

Event Time Altitude Azimuth Distance (km) Brightness Sun altitude
Rises 10:56:10 0° 32° (NNE) 3,246 6.8 -38.8°
Reaches altitude 10° 11:00:19 10° 65° (ENE) 2,311 6.2 -38.2°
Maximum altitude 11:01:59 11° 84° (E) 2,206 6.1 -37.9°
Drops below altitude 10° 11:03:38 10° 103° (ESE) 2,305 6.1 -37.6°
Sets 11:07:44 0° 137° (SE) 3,223 6.6 -37.0°
